Weather History for KHHF - December, 2012

Change the Weather History Date:

Wednesday, December 26, 2012

  Actual Average (KPPA) Record (KPPA)
Temperature  
Mean Temperature 19 °F -  
Max Temperature 30 °F 45 °F 76 °F (1971)
Min Temperature 8 °F 21 °F -2 °F (1983)
Degree Days  
Heating Degree Days 46    
Moisture  
Dew Point 10 °F    
Average Humidity 70    
Maximum Humidity 85    
Minimum Humidity 47    
Precipitation  
Precipitation 0.00 in - - ()
Sea Level Pressure  
Sea Level Pressure 30.10 in    
Wind  
Wind Speed 6 mph (SSW)    
Max Wind Speed 16 mph    
Max Gust Speed 21 mph    
Visibility 10 miles    
Events      
Averages and records for this station are not official NWS values.
T = Trace of Precipitation, MM = Missing Value Source: NWS Daily Summary

Daily Weather History Graph

Daily Weather History Graph

Search for Another Location

Airport or City:

Trip Planner

Search our weather history database for the weather conditions in past years. The results will help you decide how hot, cold, wet, or windy it might be!

Date:

Astronomy

Dec. 26, 2012 Rise Set
Actual Time 7:50 AM CST 5:34 PM CST
Civil Twilight 7:21 AM CST 6:03 PM CST
Nautical Twilight 6:49 AM CST 6:35 PM CST
Astronomical Twilight 6:18 AM CST 7:06 PM CST
Moon 4:28 PM CST (12/26) 6:16 AM CST (12/26)
Length of Visible Light 10h 41m
Length of Day
9h 44m
Waxing Gibbous, 97% of the Moon is Illuminated
Dec 26
Waxing Gibbous
Dec 28
Full
Jan 4
Last Quarter
Jan 11
New
Jan 18
First Quarter

Hourly Weather History & Observations

Time (CST) Temp. Windchill Dew Point Humidity Pressure Visibility Wind Dir Wind Speed Gust Speed Precip Events Conditions
12:15 AM 14.0 °F 5.1 °F 8.6 °F 79% 30.28 in 10.0 mi North 5.8 mph - N/A   Clear
12:35 AM 12.2 °F 0.7 °F 8.6 °F 85% 30.27 in 10.0 mi North 8.1 mph - N/A   Clear
12:55 AM 12.2 °F 1.7 °F 8.6 °F 85% 30.24 in 10.0 mi North 6.9 mph - N/A   Clear
1:15 AM 12.2 °F 2.9 °F 8.6 °F 85% 30.21 in 10.0 mi NNE 5.8 mph - N/A   Clear
1:35 AM 12.2 °F 6.1 °F 8.6 °F 85% 30.20 in 10.0 mi NNE 3.5 mph - N/A   Clear
1:55 AM 12.2 °F 6.1 °F 6.8 °F 79% 30.19 in 10.0 mi North 3.5 mph - N/A   Clear
2:15 AM 10.4 °F -0.4 °F 6.8 °F 85% 30.24 in 10.0 mi WNW 6.9 mph - N/A   Clear
2:35 AM 12.2 °F 4.3 °F 6.8 °F 79% 30.21 in 10.0 mi North 4.6 mph - N/A   Clear
2:55 AM 10.4 °F 4.0 °F 5.0 °F 79% 30.21 in 10.0 mi NNW 3.5 mph - N/A   Clear
3:15 AM 10.4 °F 2.2 °F 5.0 °F 79% 30.24 in 10.0 mi West 4.6 mph - N/A   Clear
3:35 AM 10.4 °F 0.8 °F 5.0 °F 79% 30.24 in 10.0 mi WNW 5.8 mph - N/A   Clear
3:55 AM 12.2 °F -1.8 °F 6.8 °F 79% 30.26 in 10.0 mi WNW 11.5 mph - N/A   Scattered Clouds
4:15 AM 12.2 °F -0.2 °F 6.8 °F 79% 30.24 in 10.0 mi WNW 9.2 mph 16.1 mph N/A   Clear
4:35 AM 12.2 °F -0.2 °F 5.0 °F 73% 30.25 in 10.0 mi WNW 9.2 mph - N/A   Clear
4:55 AM 12.2 °F -0.2 °F 5.0 °F 73% 30.24 in 10.0 mi WNW 9.2 mph - N/A   Clear
5:15 AM 10.4 °F 4.0 °F 5.0 °F 79% 30.22 in 10.0 mi NNW 3.5 mph - N/A   Clear
5:35 AM 10.4 °F - 5.0 °F 79% 30.21 in 10.0 mi Calm Calm - N/A   Clear
5:55 AM 10.4 °F 2.2 °F 5.0 °F 79% 30.21 in 10.0 mi North 4.6 mph - N/A   Clear
6:15 AM 8.6 °F 0.1 °F 5.0 °F 85% 30.21 in 10.0 mi NNW 4.6 mph - N/A   Clear
6:35 AM 8.6 °F - 5.0 °F 85% 30.21 in 10.0 mi Calm Calm - N/A   Clear
6:55 AM 10.4 °F - 5.0 °F 79% 30.21 in 10.0 mi Calm Calm - N/A   Clear
7:15 AM 10.4 °F 4.0 °F 5.0 °F 79% 30.21 in 10.0 mi West 3.5 mph - N/A   Clear
7:35 AM 8.6 °F 0.1 °F 3.2 °F 79% 30.22 in 10.0 mi West 4.6 mph - N/A   Clear
7:55 AM 8.6 °F 2.0 °F 3.2 °F 79% 30.21 in 10.0 mi SSW 3.5 mph - N/A   Clear
8:15 AM 8.6 °F 0.1 °F 5.0 °F 85% 30.22 in 10.0 mi WSW 4.6 mph - N/A   Clear
8:35 AM 10.4 °F 2.2 °F 5.0 °F 79% 30.22 in 10.0 mi WSW 4.6 mph - N/A   Clear
8:55 AM 12.2 °F - 5.0 °F 73% 30.22 in 10.0 mi Calm Calm - N/A   Clear
9:15 AM 12.2 °F 1.7 °F 6.8 °F 79% 30.21 in 10.0 mi WNW 6.9 mph - N/A   Clear
9:35 AM 12.2 °F 6.1 °F 6.8 °F 79% 30.20 in 10.0 mi NNW 3.5 mph - N/A   Clear
9:55 AM 14.0 °F 8.2 °F 6.8 °F 73% 30.20 in 10.0 mi North 3.5 mph - N/A   Clear
10:15 AM 14.0 °F - 6.8 °F 73% 30.20 in 10.0 mi Calm Calm - N/A   Clear
10:35 AM 14.0 °F - 8.6 °F 79% 30.20 in 10.0 mi Calm Calm - N/A   Clear
10:55 AM 15.8 °F - 8.6 °F 73% 30.19 in 10.0 mi Calm Calm - N/A   Clear
11:15 AM 15.8 °F - 6.8 °F 68% 30.18 in 10.0 mi Calm Calm - N/A   Clear
11:35 AM 17.6 °F - 6.8 °F 63% 30.16 in 10.0 mi Calm Calm - N/A   Clear
11:55 AM 17.6 °F - 8.6 °F 68% 30.16 in 10.0 mi Calm Calm - N/A   Clear
12:15 PM 19.4 °F 14.3 °F 8.6 °F 63% 30.15 in 10.0 mi West 3.5 mph - N/A   Clear
12:35 PM 21.2 °F - 8.6 °F 58% 30.13 in 10.0 mi Calm Calm - N/A   Clear
12:55 PM 21.2 °F - 5.0 °F 50% 30.12 in 10.0 mi Calm Calm - N/A   Clear
1:15 PM 21.2 °F - 8.6 °F 58% 30.11 in 10.0 mi Calm Calm - N/A   Clear
1:35 PM 23.0 °F - 8.6 °F 54% 30.09 in 10.0 mi Calm Calm - N/A   Clear
1:55 PM 24.8 °F 20.5 °F 10.4 °F 54% 30.07 in 10.0 mi South 3.5 mph - N/A   Clear
2:15 PM 26.6 °F 20.0 °F 10.4 °F 51% 30.06 in 10.0 mi SSE 5.8 mph - N/A   Clear
2:35 PM 28.4 °F 19.7 °F 10.4 °F 47% 30.05 in 10.0 mi SSE 9.2 mph - N/A   Clear
2:55 PM 28.4 °F 19.7 °F 12.2 °F 51% 30.04 in 10.0 mi SSE 9.2 mph - N/A   Clear
3:15 PM 28.4 °F 19.7 °F 12.2 °F 51% 30.04 in 10.0 mi SSE 9.2 mph - N/A   Clear
3:35 PM 30.2 °F 22.6 °F 14.0 °F 51% 30.03 in 10.0 mi SSE 8.1 mph - N/A   Clear
3:55 PM 30.2 °F 21.3 °F 14.0 °F 51% 30.01 in 10.0 mi SSE 10.4 mph - N/A   Clear
4:15 PM 30.2 °F 20.8 °F 14.0 °F 51% 30.00 in 10.0 mi SE 11.5 mph - N/A   Clear
4:35 PM 30.2 °F 22.6 °F 14.0 °F 51% 29.99 in 10.0 mi SSE 8.1 mph - N/A   Clear
4:55 PM 30.2 °F 21.3 °F 14.0 °F 51% 29.98 in 10.0 mi SSE 10.4 mph - N/A   Clear
5:15 PM 28.4 °F 19.7 °F 14.0 °F 55% 29.97 in 10.0 mi SSE 9.2 mph - N/A   Clear
5:35 PM 28.4 °F 19.1 °F 14.0 °F 55% 29.98 in 10.0 mi SSE 10.4 mph - N/A   Clear
5:55 PM 26.6 °F 15.7 °F 14.0 °F 59% 29.97 in 10.0 mi SSE 12.7 mph - N/A   Clear
6:15 PM 24.8 °F 13.4 °F 14.0 °F 64% 29.96 in 10.0 mi SE 12.7 mph - N/A   Clear
6:35 PM 24.8 °F 14.0 °F 14.0 °F 64% 29.96 in 10.0 mi SSE 11.5 mph - N/A   Clear
6:55 PM 23.0 °F 10.6 °F 14.0 °F 68% 29.96 in 10.0 mi SSE 13.8 mph - N/A   Clear
7:15 PM 23.0 °F 11.7 °F 14.0 °F 68% 29.96 in 10.0 mi SSE 11.5 mph 17.3 mph N/A   Clear
7:35 PM 23.0 °F 12.4 °F 14.0 °F 68% 29.96 in 10.0 mi SSE 10.4 mph - N/A   Clear
7:55 PM 23.0 °F 14.7 °F 14.0 °F 68% 29.97 in 10.0 mi SSE 6.9 mph - N/A   Clear
8:15 PM 23.0 °F 13.1 °F 14.0 °F 68% 29.96 in 10.0 mi SSE 9.2 mph - N/A   Clear
8:35 PM 23.0 °F 13.1 °F 14.0 °F 68% 29.94 in 10.0 mi SSE 9.2 mph 16.1 mph N/A   Clear
8:55 PM 23.0 °F 9.6 °F 14.0 °F 68% 29.95 in 10.0 mi South 16.1 mph - N/A   Clear
9:15 PM 23.0 °F 10.6 °F 14.0 °F 68% 29.95 in 10.0 mi South 13.8 mph 19.6 mph N/A   Clear
9:35 PM 23.0 °F 10.1 °F 14.0 °F 68% 29.94 in 10.0 mi South 15.0 mph - N/A   Clear
9:55 PM 23.0 °F 11.1 °F 14.0 °F 68% 29.94 in 10.0 mi South 12.7 mph - N/A   Clear
10:15 PM 23.0 °F 11.7 °F 14.0 °F 68% 29.93 in 10.0 mi South 11.5 mph - N/A   Clear
10:35 PM 23.0 °F 11.7 °F 15.8 °F 74% 29.92 in 10.0 mi South 11.5 mph 16.1 mph N/A   Clear
10:55 PM 23.0 °F 13.1 °F 15.8 °F 74% 29.91 in 10.0 mi South 9.2 mph 20.7 mph N/A   Clear
11:15 PM 23.0 °F 11.1 °F 15.8 °F 74% 29.89 in 10.0 mi SSE 12.7 mph 18.4 mph N/A   Clear
11:35 PM 23.0 °F 11.1 °F 17.6 °F 80% 29.88 in 10.0 mi South 12.7 mph - N/A   Clear
11:55 PM 23.0 °F 11.1 °F 17.6 °F 80% 29.89 in 10.0 mi South 12.7 mph 18.4 mph N/A   Clear